When you browse on this site, cookies collect data to enhance your experience and personalize the content and advertising you see.
Visit our Privacy Policy to learn more. By continuing to use the site, you agree to this use of cookies and data.
  • In Hungary
  • List of Countries
  • For 7 days
  • Water Temperature
  • Satellite Maps
  • Weather Map
  • News
  • Weather Widgets
  • user-avatar
    Login

    Hourly Weather Kofu

    Today, 18 January, Friday

    Time Temperature Precipitation Wind Pressure Humidity
    00:00 -4°C° 0 mm 2 mps 666 mmHg 69%
    01:00 -4°C° 0 mm 2 mps 666 mmHg 67%
    02:00 -4°C° 0 mm 2 mps 667 mmHg 65%
    03:00 -5°C° 0 mm 3 mps 667 mmHg 58%
    04:00 -6°C° 0 mm 3 mps 667 mmHg 54%
    05:00 -5°C° 0 mm 2 mps 668 mmHg 51%
    06:00 -6°C° 0 mm 2 mps 668 mmHg 47%
    07:00 -4°C° 0 mm 2 mps 669 mmHg 40%
    08:00 -3°C° 0 mm 2 mps 670 mmHg 33%
    09:00 -2°C° 0 mm 3 mps 670 mmHg 28%
    10:00 0°C° 0 mm 3 mps 671 mmHg 26%
    11:00 +2°C° 0 mm 2 mps 671 mmHg 23%
    12:00 +3°C° 0 mm 2 mps 671 mmHg 21%
    13:00 +3°C° 0 mm 2 mps 671 mmHg 22%
    14:00 +3°C° 0 mm 2 mps 671 mmHg 22%
    15:00 +3°C° 0 mm 2 mps 671 mmHg 22%
    16:00 +1°C° 0 mm 2 mps 671 mmHg 29%
    17:00 -2°C° 0 mm 2 mps 671 mmHg 35%
    18:00 -4°C° 0 mm 2 mps 671 mmHg 41%
    19:00 -4°C° 0 mm 2 mps 671 mmHg 42%
    20:00 -4°C° 0 mm 2 mps 671 mmHg 43%
    21:00 -5°C° 0 mm 2 mps 671 mmHg 45%
    22:00 -5°C° 0 mm 2 mps 671 mmHg 45%
    23:00 -5°C° 0 mm 2 mps 672 mmHg 45%

    Tomorrow, 19 January, Saturday

    Time Temperature Precipitation Wind Pressure Humidity
    00:00 -5°C° 0 mm 2 mps 672 mmHg 45%
    01:00 -3°C° 0 mm 1 mps 672 mmHg 46%
    02:00 -3°C° 0 mm 1 mps 672 mmHg 47%
    03:00 -3°C° 0 mm 1 mps 672 mmHg 48%
    04:00 -3°C° 0 mm 1 mps 672 mmHg 49%
    05:00 -3°C° 0 mm 1 mps 672 mmHg 51%
    06:00 -3°C° 0 mm 1 mps 672 mmHg 52%
    07:00 -1°C° 0 mm 1 mps 673 mmHg 47%
    08:00 +1°C° 0 mm 1 mps 673 mmHg 41%
    09:00 +3°C° 0 mm 1 mps 674 mmHg 36%
    10:00 +4°C° 0 mm 1 mps 674 mmHg 34%
    11:00 +5°C° 0 mm 2 mps 674 mmHg 31%
    12:00 +6°C° 0 mm 2 mps 674 mmHg 28%
    13:00 +6°C° 0 mm 2 mps 673 mmHg 30%
    14:00 +6°C° 0 mm 2 mps 673 mmHg 31%
    15:00 +7°C° 0 mm 1 mps 673 mmHg 32%
    16:00 +5°C° 0 mm 1 mps 672 mmHg 41%
    17:00 +2°C° 0 mm 1 mps 672 mmHg 50%
    18:00 0°C° 0 mm 1 mps 671 mmHg 59%
    19:00 0°C° 0 mm 1 mps 671 mmHg 61%
    20:00 0°C° 0 mm 1 mps 671 mmHg 63%
    21:00 -1°C° 0 mm 1 mps 671 mmHg 65%
    22:00 -1°C° 0 mm 1 mps 670 mmHg 65%
    23:00 -1°C° 0 mm 1 mps 670 mmHg 65%

    Day after tomorrow, 20 January, Sunday

    Time Temperature Precipitation Wind Pressure Humidity
    00:00 -1°C° 0 mm 1 mps 670 mmHg 65%
    01:00 -1°C° 0 mm 1 mps 669 mmHg 66%
    02:00 -1°C° 0 mm 1 mps 669 mmHg 67%
    03:00 -1°C° 0 mm 1 mps 669 mmHg 67%
    04:00 -1°C° 0 mm 1 mps 668 mmHg 68%
    05:00 -1°C° 0 mm 1 mps 668 mmHg 69%
    06:00 0°C° 0 mm 1 mps 667 mmHg 70%
    07:00 -1°C° 0 mm 2 mps 667 mmHg 66%
    08:00 +2°C° 0 mm 2 mps 668 mmHg 62%
    09:00 +4°C° 0 mm 2 mps 668 mmHg 59%
    10:00 +3°C° 0.2 mm 3 mps 667 mmHg 60%
    11:00 +4°C° 0.2 mm 3 mps 666 mmHg 62%
    12:00 +4°C° 0.2 mm 4 mps 666 mmHg 63%
    13:00 +4°C° 0.4 mm 4 mps 665 mmHg 65%
    14:00 +4°C° 0.4 mm 4 mps 664 mmHg 67%
    15:00 +3°C° 0.4 mm 4 mps 663 mmHg 68%
    16:00 +2°C° 0.1 mm 3 mps 663 mmHg 71%
    17:00 +1°C° 0.1 mm 3 mps 663 mmHg 73%
    18:00 0°C° 0.1 mm 3 mps 663 mmHg 76%
    19:00 0°C° 0.1 mm 3 mps 663 mmHg 75%
    20:00 -1°C° 0.1 mm 3 mps 663 mmHg 75%
    21:00 -2°C° 0.1 mm 2 mps 663 mmHg 74%
    22:00 -3°C° 0 mm 2 mps 663 mmHg 74%
    23:00 -4°C° 0 mm 2 mps 663 mmHg 73%

    21 January, Monday

    Time Temperature Precipitation Wind Pressure Humidity
    00:00 -4°C° 0 mm 2 mps 663 mmHg 73%
    01:00 -5°C° 0 mm 2 mps 663 mmHg 70%
    02:00 -6°C° 0 mm 2 mps 663 mmHg 66%
    03:00 -6°C° 0 mm 2 mps 664 mmHg 63%
    04:00 -7°C° 0 mm 2 mps 664 mmHg 60%
    05:00 -7°C° 0 mm 2 mps 664 mmHg 58%
    06:00 -7°C° 0 mm 2 mps 664 mmHg 56%
    07:00 -6°C° 0 mm 2 mps 665 mmHg 49%
    08:00 -6°C° 0 mm 3 mps 666 mmHg 43%
    09:00 -4°C° 0 mm 3 mps 667 mmHg 37%
    10:00 -2°C° 0 mm 3 mps 667 mmHg 35%
    11:00 -1°C° 0 mm 3 mps 667 mmHg 34%
    12:00 +1°C° 0 mm 2 mps 667 mmHg 33%
    13:00 +1°C° 0 mm 2 mps 667 mmHg 35%
    14:00 +1°C° 0 mm 2 mps 667 mmHg 36%
    15:00 +1°C° 0 mm 2 mps 666 mmHg 38%
    16:00 -2°C° 0 mm 2 mps 666 mmHg 46%
    17:00 -4°C° 0 mm 2 mps 666 mmHg 54%
    18:00 -3°C° 0 mm 1 mps 665 mmHg 62%
    19:00 -3°C° 0 mm 1 mps 666 mmHg 63%
    20:00 -3°C° 0 mm 1 mps 666 mmHg 63%
    21:00 -4°C° 0 mm 1 mps 666 mmHg 64%
    22:00 -4°C° 0 mm 1 mps 666 mmHg 63%
    23:00 -6°C° 0 mm 2 mps 666 mmHg 62%

    22 January, Tuesday

    Time Temperature Precipitation Wind Pressure Humidity
    00:00 -6°C° 0 mm 2 mps 665 mmHg 61%
    01:00 -6°C° 0 mm 2 mps 665 mmHg 62%
    02:00 -5°C° 0 mm 2 mps 665 mmHg 62%
    03:00 -5°C° 0 mm 2 mps 665 mmHg 63%
    04:00 -5°C° 0 mm 2 mps 664 mmHg 65%
    05:00 -5°C° 0 mm 2 mps 664 mmHg 67%
    06:00 -5°C° 0 mm 2 mps 664 mmHg 69%
    07:00 -4°C° 0.1 mm 2 mps 664 mmHg 66%
    08:00 -2°C° 0.1 mm 3 mps 665 mmHg 62%
    09:00 -1°C° 0.1 mm 3 mps 665 mmHg 58%
    10:00 -1°C° 0.1 mm 4 mps 664 mmHg 57%
    11:00 -1°C° 0.1 mm 4 mps 664 mmHg 55%
    12:00 0°C° 0.1 mm 4 mps 664 mmHg 53%
    13:00 -1°C° 0.2 mm 4 mps 664 mmHg 55%
    14:00 -1°C° 0.2 mm 4 mps 664 mmHg 57%
    15:00 0°C° 0.2 mm 3 mps 664 mmHg 59%
    16:00 -2°C° 0 mm 3 mps 664 mmHg 62%
    17:00 -3°C° 0 mm 2 mps 664 mmHg 66%
    18:00 -3°C° 0 mm 1 mps 664 mmHg 69%
    19:00 -3°C° 0 mm 1 mps 664 mmHg 68%
    20:00 -4°C° 0 mm 1 mps 664 mmHg 67%
    21:00 -4°C° 0 mm 1 mps 665 mmHg 65%
    22:00 -4°C° 0 mm 1 mps 665 mmHg 64%
    23:00 -6°C° 0 mm 1 mps 665 mmHg 62%

    23 January, Wednesday

    Time Temperature Precipitation Wind Pressure Humidity
    00:00 -6°C° 0 mm 1 mps 665 mmHg 60%
    01:00 -6°C° 0 mm 1 mps 665 mmHg 59%
    02:00 -6°C° 0 mm 1 mps 664 mmHg 59%
    03:00 -6°C° 0 mm 1 mps 664 mmHg 58%
    04:00 -6°C° 0 mm 1 mps 664 mmHg 60%
    05:00 -6°C° 0 mm 1 mps 665 mmHg 61%
    06:00 -6°C° 0 mm 1 mps 665 mmHg 62%
    07:00 -3°C° 0 mm 1 mps 665 mmHg 58%
    08:00 -1°C° 0 mm 1 mps 666 mmHg 53%
    09:00 +1°C° 0 mm 1 mps 666 mmHg 49%
    10:00 -1°C° 0 mm 2 mps 666 mmHg 48%
    11:00 +1°C° 0 mm 2 mps 665 mmHg 47%
    12:00 +1°C° 0 mm 3 mps 665 mmHg 47%
    13:00 0°C° 0.2 mm 3 mps 664 mmHg 52%
    14:00 -1°C° 0.2 mm 3 mps 664 mmHg 56%
    15:00 -2°C° 0.2 mm 4 mps 663 mmHg 61%
    16:00 -2°C° 0.1 mm 3 mps 663 mmHg 64%
    17:00 -4°C° 0.1 mm 3 mps 664 mmHg 66%
    18:00 -4°C° 0.1 mm 2 mps 664 mmHg 69%
    19:00 -5°C° 0 mm 2 mps 664 mmHg 70%
    20:00 -5°C° 0 mm 2 mps 665 mmHg 72%
    21:00 -6°C° 0 mm 2 mps 666 mmHg 73%
    22:00 -6°C° 0 mm 2 mps 666 mmHg 72%
    23:00 -7°C° 0 mm 2 mps 666 mmHg 71%
    Show more